Sterling Muni, Sterling, CO, CO

12:54 AM MDT on May 26, 2017 (GMT -0600)
Sterling Municipal

Weather History for KSTK - December, 2013

Change the Weather History Date:

Wednesday, December 25, 2013

  Actual Average Record
Temperature  
Mean Temperature 27 °F -  
Max Temperature 42 °F 37 °F 50 °F (2016)
Min Temperature 12 °F 10 °F 12 °F (2013)
Degree Days  
Heating Degree Days 38    
Moisture  
Dew Point 13 °F    
Average Humidity 62    
Maximum Humidity 93    
Minimum Humidity 27    
Precipitation  
Precipitation 0.00 in - - ()
Sea Level Pressure  
Sea Level Pressure 30.29 in    
Wind  
Wind Speed 9 mph (WNW)    
Max Wind Speed 20 mph    
Max Gust Speed 23 mph    
Visibility 10 miles    
Events      
Averages and records for this station are not official NWS values.
T = Trace of Precipitation, MM = Missing Value Source: NWS Daily Summary

Daily Weather History Graph

Daily Weather History Graph

Search for Another Location

Airport or City:

Trip Planner

Search our weather history database for the weather conditions in past years. The results will help you decide how hot, cold, wet, or windy it might be!

Date:

Astronomy

Dec. 25, 2013 Rise Set
Actual Time 7:15 AM MST 4:31 PM MST
Civil Twilight 6:44 AM MST 5:02 PM MST
Nautical Twilight 6:09 AM MST 5:36 PM MST
Astronomical Twilight 5:36 AM MST 6:10 PM MST
Moon No Moon Rise 11:38 AM MST (12/25)
Length of Visible Light 10h 18m
Length of Day
9h 16m
Waning Gibbous, 48% of the Moon is Illuminated
Dec 25
Waning Gibbous
Jan 1
New
Jan 7
First Quarter
Jan 15
Full
Jan 23
Last Quarter

Hourly Weather History & Observations

Time (MST) Temp. Windchill Dew Point Humidity Pressure Visibility Wind Dir Wind Speed Gust Speed Precip Events Conditions
12:10 AM 12.2 °F 4.3 °F 10.4 °F 92% 30.28 in 10.0 mi South 4.6 mph - N/A   Clear
12:30 AM 14.0 °F 2.0 °F 12.2 °F 93% 30.27 in 10.0 mi West 9.2 mph - N/A   Clear
12:50 AM 14.0 °F 2.9 °F 12.2 °F 93% 30.27 in 10.0 mi WSW 8.1 mph - N/A   Clear
1:10 AM 14.0 °F 8.2 °F 12.2 °F 93% 30.27 in 10.0 mi SW 3.5 mph - N/A   Clear
1:30 AM 14.0 °F 6.5 °F 10.4 °F 86% 30.27 in 10.0 mi WSW 4.6 mph - N/A   Clear
1:50 AM 12.2 °F 6.1 °F 10.4 °F 92% 30.28 in 10.0 mi SW 3.5 mph - N/A   Clear
2:10 AM 12.2 °F 4.3 °F 10.4 °F 92% 30.29 in 10.0 mi SW 4.6 mph - N/A   Clear
2:30 AM 12.2 °F 1.7 °F 10.4 °F 92% 30.30 in 10.0 mi SW 6.9 mph - N/A   Clear
2:50 AM 12.2 °F 1.7 °F 10.4 °F 92% 30.30 in 10.0 mi WSW 6.9 mph - N/A   Clear
3:10 AM 12.2 °F 2.9 °F 8.6 °F 85% 30.31 in 10.0 mi West 5.8 mph - N/A   Clear
3:30 AM 12.2 °F 1.7 °F 10.4 °F 92% 30.31 in 10.0 mi WSW 6.9 mph - N/A   Clear
3:50 AM 14.0 °F 8.2 °F 10.4 °F 86% 30.31 in 10.0 mi WNW 3.5 mph - N/A   Clear
4:10 AM 14.0 °F 2.0 °F 10.4 °F 86% 30.31 in 10.0 mi NW 9.2 mph - N/A   Clear
4:30 AM 24.8 °F 11.9 °F 17.6 °F 74% 30.31 in 10.0 mi NW 16.1 mph - N/A   Clear
4:50 AM 24.8 °F 12.4 °F 15.8 °F 69% 30.32 in 10.0 mi NW 15.0 mph 18.4 mph N/A   Clear
5:10 AM 24.8 °F 12.9 °F 15.8 °F 69% 30.32 in 10.0 mi NW 13.8 mph 19.6 mph N/A   Clear
5:30 AM 26.6 °F 14.3 °F 14.0 °F 59% 30.33 in 10.0 mi NW 16.1 mph 23.0 mph N/A   Clear
5:50 AM 26.6 °F 14.3 °F 14.0 °F 59% 30.33 in 10.0 mi NW 16.1 mph 23.0 mph N/A   Clear
6:10 AM 26.6 °F 14.7 °F 14.0 °F 59% 30.34 in 10.0 mi NW 15.0 mph - N/A   Clear
6:30 AM 23.0 °F 13.1 °F 14.0 °F 68% 30.34 in 10.0 mi NW 9.2 mph - N/A   Clear
6:50 AM 23.0 °F 12.4 °F 14.0 °F 68% 30.35 in 10.0 mi NW 10.4 mph - N/A   Clear
7:10 AM 24.8 °F 13.4 °F 14.0 °F 64% 30.35 in 10.0 mi NW 12.7 mph - N/A   Clear
7:30 AM 26.6 °F 16.2 °F 14.0 °F 59% 30.35 in 10.0 mi NW 11.5 mph - N/A   Clear
7:50 AM 26.6 °F 16.8 °F 14.0 °F 59% 30.36 in 10.0 mi NW 10.4 mph - N/A   Clear
8:10 AM 26.6 °F 18.2 °F 15.8 °F 64% 30.36 in 10.0 mi NW 8.1 mph - N/A   Clear
8:30 AM 30.2 °F 20.8 °F 15.8 °F 55% 30.37 in 10.0 mi NNW 11.5 mph - N/A   Clear
8:50 AM 32.0 °F 21.6 °F 15.8 °F 51% 30.37 in 10.0 mi NNW 15.0 mph - N/A   Clear
9:10 AM 32.0 °F 22.5 °F 15.8 °F 51% 30.38 in 10.0 mi NNW 12.7 mph - N/A   Clear
9:30 AM 35.6 °F 26.2 °F 15.8 °F 44% 30.38 in 10.0 mi NNW 15.0 mph - N/A   Clear
9:50 AM 35.6 °F 26.6 °F 15.8 °F 44% 30.38 in 10.0 mi NNW 13.8 mph - N/A   Clear
10:10 AM 37.4 °F 28.5 °F 15.8 °F 41% 30.38 in 10.0 mi NNW 15.0 mph - N/A   Clear
10:30 AM 39.2 °F 30.5 °F 14.0 °F 36% 30.38 in 10.0 mi NNW 16.1 mph 20.7 mph N/A   Clear
10:50 AM 39.2 °F 31.2 °F 14.0 °F 36% 30.37 in 10.0 mi NW 13.8 mph - N/A   Clear
11:10 AM 39.2 °F 29.6 °F 12.2 °F 33% 30.36 in 10.0 mi NNW 19.6 mph 23.0 mph N/A   Clear
11:30 AM 41.0 °F 31.9 °F 12.2 °F 31% 30.35 in 10.0 mi NW 19.6 mph 23.0 mph N/A   Clear
11:50 AM 41.0 °F 32.5 °F 12.2 °F 31% 30.34 in 10.0 mi NNW 17.3 mph - N/A   Clear
12:10 PM 41.0 °F 32.2 °F 14.0 °F 33% 30.34 in 10.0 mi NNW 18.4 mph - N/A   Clear
12:30 PM 41.0 °F 33.9 °F 14.0 °F 33% 30.33 in 10.0 mi NNW 12.7 mph - N/A   Clear
12:50 PM 41.0 °F 34.3 °F 14.0 °F 33% 30.32 in 10.0 mi NNW 11.5 mph 21.9 mph N/A   Clear
1:10 PM 42.8 °F 34.5 °F 14.0 °F 31% 30.31 in 10.0 mi North 18.4 mph - N/A   Clear
1:30 PM 42.8 °F 37.0 °F 14.0 °F 31% 30.30 in 10.0 mi NNW 10.4 mph 16.1 mph N/A   Clear
1:50 PM 42.8 °F 34.8 °F 12.2 °F 29% 30.30 in 10.0 mi NNW 17.3 mph 21.9 mph N/A   Clear
2:10 PM 42.8 °F 35.1 °F 10.4 °F 27% 30.29 in 10.0 mi NNW 16.1 mph 19.6 mph N/A   Clear
2:30 PM 42.8 °F 35.4 °F 10.4 °F 27% 30.29 in 10.0 mi NNW 15.0 mph 20.7 mph N/A   Clear
2:50 PM 42.8 °F 36.2 °F 10.4 °F 27% 30.29 in 10.0 mi NNW 12.7 mph - N/A   Clear
3:10 PM 41.0 °F 35.2 °F 10.4 °F 29% 30.29 in 10.0 mi NNW 9.2 mph - N/A   Clear
3:30 PM 41.0 °F 37.1 °F 12.2 °F 31% 30.28 in 10.0 mi North 5.8 mph - N/A   Clear
3:50 PM 39.2 °F - 12.2 °F 33% 30.28 in 10.0 mi Calm Calm - N/A   Clear
4:10 PM 37.4 °F - 12.2 °F 36% 30.27 in 10.0 mi Calm Calm - N/A   Clear
4:30 PM 35.6 °F - 12.2 °F 38% 30.26 in 10.0 mi Calm Calm - N/A   Clear
4:50 PM 33.8 °F 28.6 °F 12.2 °F 41% 30.27 in 10.0 mi SW 5.8 mph - N/A   Clear
5:10 PM 28.4 °F 18.5 °F 14.0 °F 55% 30.26 in 10.0 mi SW 11.5 mph - N/A   Clear
5:30 PM 28.4 °F 19.7 °F 17.6 °F 64% 30.26 in 10.0 mi WSW 9.2 mph - N/A   Clear
5:50 PM 23.0 °F 13.9 °F 14.0 °F 68% 30.26 in 10.0 mi WSW 8.1 mph - N/A   Clear
6:10 PM 23.0 °F 15.8 °F 14.0 °F 68% 30.26 in 10.0 mi SW 5.8 mph - N/A   Clear
6:30 PM 23.0 °F 18.4 °F 14.0 °F 68% 30.25 in 10.0 mi South 3.5 mph - N/A   Clear
6:50 PM 23.0 °F 17.0 °F 14.0 °F 68% 30.25 in 10.0 mi SSW 4.6 mph - N/A   Clear
7:10 PM 21.2 °F - 14.0 °F 74% 30.25 in 10.0 mi Calm Calm - N/A   Clear
7:30 PM 21.2 °F 14.9 °F 14.0 °F 74% 30.25 in 10.0 mi SSW 4.6 mph - N/A   Clear
7:50 PM 21.2 °F 14.9 °F 14.0 °F 74% 30.24 in 10.0 mi SSW 4.6 mph - N/A   Clear
8:10 PM 19.4 °F 11.5 °F 12.2 °F 74% 30.22 in 10.0 mi SSW 5.8 mph - N/A   Clear
8:30 PM 15.8 °F 7.2 °F 12.2 °F 86% 30.21 in 10.0 mi SW 5.8 mph - N/A   Clear
8:50 PM 17.6 °F - 12.2 °F 79% 30.21 in 10.0 mi Calm Calm - N/A   Clear
9:10 PM 19.4 °F 12.8 °F 12.2 °F 74% 30.20 in 10.0 mi SW 4.6 mph - N/A   Clear
9:30 PM 17.6 °F - 12.2 °F 79% 30.20 in 10.0 mi Calm Calm - N/A   Clear
9:50 PM 17.6 °F 12.3 °F 14.0 °F 86% 30.20 in 10.0 mi WNW 3.5 mph - N/A   Clear
10:10 PM 19.4 °F 14.3 °F 14.0 °F 80% 30.20 in 10.0 mi SSW 3.5 mph - N/A   Clear
10:30 PM 19.4 °F - 12.2 °F 74% 30.20 in 10.0 mi Calm Calm - N/A   Clear
10:50 PM 19.4 °F 12.8 °F 14.0 °F 80% 30.20 in 10.0 mi South 4.6 mph - N/A   Clear
11:10 PM 15.8 °F 10.2 °F 10.4 °F 79% 30.20 in 10.0 mi SSW 3.5 mph - N/A   Clear
11:30 PM 17.6 °F - 12.2 °F 79% 30.19 in 10.0 mi Calm Calm - N/A   Clear
11:50 PM 15.8 °F 6.1 °F 12.2 °F 86% 30.19 in 10.0 mi SSW 6.9 mph - N/A   Clear